Dewpoint
71 70 71 71 71 67 67 67 58 62 60 55 56 54 54 59 57 59 61 62 63 65 63 65 63 62 60 60 59 60 62 61 57 53 57 66 70 70 70 70 69 70 71 72 73 74 75 76 76 76 76 76 77 77 77 77 77 77 77 77 76 76 76 76 76 76 76 76 76 76 76 76 76 75 75 75 75 75 76 75 75 75 74 75 75 75 74 75 75 75 75 75 75 75 74 74 74
69 69 70 70 72 71 65 66 60 60 59 56 54 54 54 58 58 57 59 62 60 60 60 63 60 58 58 58 60 60 61 63 64 64 66 68 68 68 69 70 69 69 70 72 73 72 74 75 76 76 76 76 77 77 77 77 77 77 77 76 76 76 76 76 76 76 76 76 76 76 76 76 76 76 76 76 75 75 75 75 75 75 75 74 75 75 74 75 75 75 75 75 75 75 76 75 74
69 69 72 68 67 70 68 67 57 58 56 55 59 58 63 59 58 56 59 61 57 59 60 59 57 56 56 57 57 58 60 64 63 63 65 67 66 69 68 70 70 69 70 71 71 72 74 75 77 77 77 77 77 77 77 77 77 77 76 76 76 76 76 76 76 77 77 77 77 76 75 75 74 74 74 75 75 75 75 74 74 74 74 75 75 75 75 74 74 74 75 75 75 75 76 75 74
70 69 69 68 67 70 64 63 58 57 55 58 58 59 63 59 58 58 59 58 55 56 55 58 57 57 57 56 58 60 60 61 63 63 65 66 66 68 68 69 70 69 69 69 70 72 74 76 77 77 77 77 77 77 77 77 77 77 76 76 76 76 76 76 77 76 77 76 76 75 75 75 75 75 75 74 75 75 75 75 75 74 75 75 74 74 74 74 75 74 75 75 75 75 75 75 74
69 70 70 69 68 63 63 60 59 60 55 55 54 54 57 57 58 60 59 59 57 58 61 57 57 59 59 58 57 57 60 63 63 64 65 67 66 66 67 68 68 67 68 69 71 72 74 77 77 77 77 77 77 77 77 77 77 76 76 77 77 76 76 76 77 77 76 76 75 75 75 75 75 75 75 74 75 74 74 74 74 74 75 74 74 74 74 74 75 75 74 75 75 75 75 75 74
70 70 76 72 65 68 65 58 56 56 59 57 55 56 55 56 59 58 55 62 61 60 58 64 58 59 59 56 57 57 62 60 63 64 66 66 67 68 67 68 66 66 68 70 71 73 74 77 77 77 77 77 77 77 77 77 77 77 77 76 76 76 76 76 77 76 76 75 75 75 75 75 75 75 75 75 75 75 74 74 74 74 75 75 75 75 74 74 75 74 75 75 74 75 74 74 74
71 70 69 70 68 67 59 57 56 60 57 59 55 56 56 57 58 58 58 56 58 62 58 58 59 57 56 61 60 59 61 63 65 65 66 67 67 67 67 66 66 67 69 70 72 74 75 77 78 77 77 77 77 77 77 77 77 77 76 76 76 76 76 77 76 76 76 76 75 75 75 75 75 75 75 75 75 75 75 75 75 75 75 74 75 75 74 74 74 74 74 74 74 74 73 74 74
75 68 67 63 61 62 58 57 57 58 52 61 57 57 57 58 58 56 60 57 57 60 58 58 59 60 57 57 56 58 62 64 65 66 67 68 68 68 67 67 67 68 68 71 73 74 77 77 77 77 77 77 77 77 77 77 77 76 76 76 76 76 76 76 76 76 76 76 75 75 75 75 75 75 75 75 75 74 74 75 75 75 75 75 75 75 75 75 75 75 74 74 74 74 74 74 74
70 70 69 64 60 60 57 54 55 59 59 47 48 53 56 54 59 58 61 57 56 56 56 57 57 56 57 58 57 60 63 65 65 66 67 67 68 69 68 68 69 68 69 71 74 75 76 78 77 76 77 76 77 77 78 77 77 77 77 76 76 76 76 76 76 76 76 76 75 75 75 75 75 75 75 75 74 74 74 74 74 75 75 75 75 75 75 75 75 75 74 74 74 74 74 74 74
68 69 64 62 60 56 55 54 55 57 51 48 48 54 55 52 54 52 51 57 55 55 56 60 59 58 57 57 58 60 63 65 65 64 65 67 67 68 68 68 69 69 69 72 73 74 75 78 77 76 76 76 77 77 78 77 77 77 77 76 76 76 76 76 76 76 76 76 75 75 75 75 75 75 75 75 74 74 74 74 74 74 74 74 74 75 75 75 75 74 75 75 74 75 74 75 75
65 67 66 61 56 55 52 52 51 49 57 48 49 50 50 51 53 54 54 55 56 57 58 58 57 58 58 58 59 61 63 65 64 64 64 66 66 67 68 68 68 69 70 71 72 74 75 75 76 76 76 77 77 77 78 78 77 77 77 77 76 76 76 76 76 76 76 76 76 76 75 75 75 75 75 74 74 74 74 74 74 74 74 74 74 73 73 74 74 75 75 75 75 75 75 75 75
63 63 63 59 56 53 54 57 47 50 53 50 47 53 49 49 52 51 56 55 55 55 56 59 59 60 58 58 59 60 62 63 65 64 64 65 65 66 66 68 69 69 69 70 72 74 74 75 75 76 76 77 77 77 77 77 77 77 77 77 77 76 76 76 76 76 76 76 76 76 76 75 75 75 75 74 74 74 74 74 74 73 74 74 74 73 74 74 74 74 75 75 75 75 75 75 75
62 64 60 60 58 55 52 52 56 50 50 47 49 48 51 51 52 56 55 54 55 55 56 61 60 58 56 58 60 60 62 63 63 63 64 66 65 66 67 68 70 69 69 71 72 72 74 74 74 75 75 77 77 77 77 77 77 77 77 77 77 77 76 76 76 76 76 76 76 76 76 75 75 75 75 75 75 74 74 74 73 73 73 73 74 74 74 74 74 75 75 75 75 75 75 75 75
62 63 62 58 57 55 51 49 42 44 44 50 47 50 50 49 49 49 53 52 52 55 57 59 60 59 58 59 60 58 60 63 62 62 63 66 66 65 66 67 68 69 70 71 71 72 73 73 74 74 75 76 76 77 77 77 77 77 77 77 77 77 76 76 76 76 76 76 76 76 76 75 75 75 75 75 75 75 75 74 74 74 73 73 74 74 74 75 75 75 75 75 75 75 75 75 75
59 65 64 60 57 51 49 50 43 46 48 46 52 52 48 49 50 54 52 53 53 57 59 61 60 58 57 57 57 58 59 62 62 62 64 64 65 66 67 68 67 68 69 70 71 72 72 72 72 74 75 75 76 76 77 76 77 77 77 77 77 77 76 76 76 76 76 76 76 76 76 75 75 75 75 75 75 75 75 75 74 74 74 74 74 75 75 75 75 75 75 75 75 75 75 75 75
55 57 64 57 52 50 50 44 45 44 43 45 47 49 49 51 53 51 51 52 53 57 59 57 60 56 58 57 58 59 60 63 63 62 62 64 66 65 66 68 67 68 68 70 71 71 70 70 72 73 74 74 74 74 76 76 77 77 77 77 77 77 76 76 76 76 76 76 76 76 75 75 75 74 75 74 75 76 75 74 74 74 74 74 75 75 75 75 76 76 75 75 75 75 75 75 75
53 53 51 56 51 48 46 42 44 48 42 43 46 47 47 49 51 50 50 49 51 54 55 56 57 57 56 57 59 59 61 63 64 63 62 64 66 65 67 69 68 68 68 69 70 70 70 70 72 72 73 73 71 73 74 76 76 77 77 77 77 77 76 76 77 76 76 76 76 76 76 75 76 76 75 73 75 74 75 74 74 74 74 75 75 75 75 75 75 75 76 76 75 75 75 75 75
51 56 58 49 51 48 48 47 47 48 47 43 45 47 47 44 46 50 49 49 51 52 52 54 54 55 57 59 60 60 61 62 62 62 62 63 66 66 67 67 66 66 67 68 70 70 70 71 71 72 72 72 73 73 74 75 76 76 76 77 77 76 76 77 77 76 76 76 76 76 77 77 77 77 76 75 76 75 74 75 75 75 75 75 75 75 75 75 75 75 76 76 76 75 75 75 76
49 47 49 49 52 50 52 51 49 52 49 45 46 45 48 46 45 48 49 48 50 49 51 53 57 56 57 59 59 60 60 60 60 61 61 61 63 65 65 67 68 66 66 66 68 69 70 71 71 71 71 73 73 73 73 75 76 76 76 76 76 76 77 76 76 76 76 77 77 76 78 78 77 77 78 76 76 75 74 75 75 75 75 75 75 75 76 75 75 74 75 76 75 76 76 79 78
49 45 46 53 50 56 53 52 52 57 54 48 47 46 47 44 46 48 48 47 51 50 51 54 54 55 57 58 59 60 60 60 61 61 61 62 62 63 65 66 67 67 66 66 67 69 70 70 71 72 72 73 73 72 73 74 75 76 75 75 75 75 76 76 76 76 76 77 75 76 77 77 76 78 76 76 75 76 75 75 75 75 75 75 76 76 76 76 76 75 75 75 75 76 76 76 74
48 45 42 53 54 50 58 50 51 52 56 55 46 47 46 45 44 47 50 47 49 49 51 53 53 55 58 59 59 60 59 59 60 60 61 61 61 63 64 65 66 68 68 68 69 71 71 71 71 72 73 72 72 72 72 72 74 74 73 73 74 74 74 75 75 75 76 78 76 77 75 75 75 76 77 76 76 76 76 76 75 75 77 76 76 76 76 76 76 76 76 76 76 75 74 75 75
46 44 45 52 54 51 49 50 52 51 55 48 47 48 45 47 47 47 50 48 50 49 50 54 54 56 57 58 59 59 59 59 60 61 61 61 61 63 64 64 66 67 70 69 70 71 71 72 72 72 71 72 72 72 72 73 73 72 72 72 73 73 73 73 74 75 75 77 77 75 74 75 75 76 76 75 75 77 75 76 75 75 77 76 76 77 76 77 77 75 75 76 74 74 74 75 74
43 43 44 50 47 46 50 50 49 51 51 56 55 47 46 47 48 47 49 47 49 50 52 55 55 56 57 58 58 58 59 60 60 60 61 62 61 62 64 64 64 67 69 70 70 71 72 71 72 73 71 73 73 73 72 73 71 71 71 71 71 71 72 72 72 73 76 78 75 74 72 74 74 73 75 75 76 76 75 75 77 78 76 76 76 75 75 76 75 75 76 75 74 75 73 73 76
44 43 42 50 48 47 50 49 48 48 45 48 50 49 44 45 46 46 46 48 47 48 52 54 55 55 57 58 58 58 58 59 60 61 61 61 60 62 63 63 64 66 69 70 70 70 71 70 71 72 74 73 74 73 73 72 71 69 69 72 72 71 71 71 70 74 75 76 76 74 75 74 71 72 73 75 76 76 76 76 76 75 75 76 76 76 75 75 76 77 76 75 74 75 70 74 73
41 42 42 42 53 53 50 48 48 48 47 47 48 50 49 44 43 44 45 46 48 49 53 54 54 55 57 58 58 58 59 59 59 60 60 62 60 62 63 63 64 65 65 68 69 70 70 71 72 71 73 73 72 73 72 72 71 70 69 70 71 73 72 70 71 74 75 75 75 77 76 73 71 73 74 74 74 75 76 75 74 74 75 76 76 75 75 77 76 75 76 75 76 77 75 75 73
41 41 42 41 40 49 46 48 47 47 48 46 43 40 42 42 43 42 44 44 47 49 51 52 53 54 56 57 58 59 59 59 59 59 59 62 61 62 63 63 62 64 65 68 69 70 70 70 71 71 72 72 73 71 73 73 72 72 72 72 72 74 72 71 73 72 74 73 73 76 71 72 71 74 75 77 76 76 76 76 76 74 78 79 74 76 77 75 77 76 77 78 75 74 76 75 76
41 41 41 41 41 41 51 48 48 48 49 48 44 42 40 41 41 39 45 45 47 49 50 52 53 53 55 56 58 59 58 58 59 58 60 60 62 62 63 63 62 64 65 67 68 70 71 70 71 71 73 75 74 70 73 74 74 73 74 73 72 73 72 76 74 72 71 71 73 77 76 78 76 71 73 74 75 77 75 75 75 77 75 77 78 75 77 78 76 78 77 78 77 79 77 76 74
40 42 42 41 40 40 42 47 49 49 45 45 44 41 40 40 37 38 43 45 46 48 50 51 52 53 55 54 56 59 58 57 57 58 59 59 61 61 62 62 63 64 63 65 67 70 70 70 69 70 72 74 74 72 74 73 74 74 76 76 72 73 75 74 73 72 75 74 75 76 78 78 77 76 79 76 75 78 77 76 77 76 76 77 76 78 76 77 78 76 78 80 77 78 76 76 75
40 41 40 40 41 41 40 42 45 48 43 45 44 41 38 38 37 37 41 45 45 47 50 49 52 53 54 54 58 60 59 58 58 59 59 60 60 61 61 62 63 64 64 66 67 68 68 69 69 71 72 73 73 71 72 73 73 73 74 74 74 74 73 73 72 71 73 75 77 76 78 77 79 79 80 79 76 77 76 79 76 76 75 78 77 77 75 78 78 78 77 79 78 75 75 73 70
38 42 41 40 35 37 40 41 42 43 43 44 42 37 37 37 38 37 41 44 44 46 49 49 52 51 53 54 56 59 60 59 58 59 60 60 60 61 61 61 63 63 64 67 66 66 67 67 68 69 71 72 73 70 72 71 72 72 73 73 74 74 72 72 72 74 75 76 76 77 77 78 78 78 79 78 77 76 76 77 77 78 78 77 77 79 79 78 76 77 75 76 75 76 72 74 73
36 39 41 40 37 35 36 38 39 38 41 42 41 37 35 34 35 36 39 43 43 45 47 49 51 52 52 54 56 59 59 60 58 58 58 59 59 60 61 61 62 62 64 66 66 67 67 67 68 67 71 71 72 71 72 72 73 71 72 72 72 75 73 73 70 72 73 74 75 76 78 78 77 78 78 78 77 77 75 78 77 76 78 78 78 79 78 77 77 77 77 76 76 74 72 74 70
35 37 37 38 36 34 34 36 35 34 38 40 39 34 34 32 34 36 39 44 43 46 49 50 51 50 52 53 56 57 58 59 59 57 57 59 59 60 60 61 61 61 63 65 66 66 67 67 69 67 69 71 72 73 73 73 72 74 73 73 73 75 73 72 71 70 71 73 73 76 78 78 78 78 78 78 77 76 76 76 77 78 78 78 79 78 77 77 78 77 76 75 77 69 72 71 71
30 32 34 33 33 32 30 27 31 33 35 38 37 33 31 31 34 35 40 43 43 47 49 48 50 50 51 52 54 55 57 59 58 57 58 59 59 60 60 61 62 61 62 65 66 68 69 67 70 67 67 70 72 71 74 74 74 75 74 73 71 74 71 71 73 72 71 72 74 74 77 78 78 78 78 78 78 77 76 75 77 78 78 78 79 79 78 78 77 73 77 75 77 77 69 59 65
27 28 29 31 30 30 28 28 28 31 32 35 36 33 33 31 34 35 40 43 43 45 46 49 51 53 54 53 54 55 57 59 58 59 58 58 59 59 60 64 61 62 64 63 66 67 67 67 68 68 69 69 72 73 74 74 74 75 74 73 75 72 71 70 70 71 71 71 73 74 77 78 78 78 78 78 78 77 77 76 77 77 77 80 79 79 78 76 76 75 75 77 75 73 72 66 63
26 26 27 28 29 28 26 25 25 29 32 33 34 33 31 32 33 36 39 42 44 47 47 49 51 51 53 53 56 57 58 59 58 59 57 59 59 60 60 61 61 62 62 64 66 69 69 69 69 72 70 70 72 74 75 74 74 75 73 74 73 74 74 73 71 71 71 71 69 76 77 78 78 78 77 78 78 77 77 78 77 78 79 79 77 76 76 76 76 76 74 77 76 73 74 71 69
26 25 24 26 25 26 25 26 27 28 31 31 33 32 29 30 31 38 40 42 45 45 47 52 52 52 55 54 54 58 59 58 59 59 58 58 59 59 59 61 60 61 63 66 69 70 70 71 70 72 71 70 72 73 73 72 72 72 71 72 72 73 74 73 73 70 70 69 69 75 77 78 78 78 78 78 78 77 77 77 77 77 78 78 78 77 75 76 74 75 74 74 75 76 74 69 68
24 22 22 23 24 24 25 26 26 27 28 30 30 31 30 30 33 39 39 39 40 45 48 51 55 56 53 54 54 58 60 59 60 60 59 58 58 59 61 62 62 63 67 68 69 69 70 70 70 71 71 71 72 71 71 70 70 71 72 70 70 70 73 72 71 70 69 67 72 74 77 77 78 78 78 77 77 77 78 78 78 78 78 78 78 76 75 75 76 76 79 79 74 73 72 71 68
23 20 19 19 22 22 23 24 24 27 27 28 30 29 29 30 33 38 40 38 38 39 51 47 50 54 55 56 56 59 60 60 60 60 59 58 58 58 59 62 64 63 67 68 68 68 70 69 70 71 71 71 71 71 71 71 71 71 71 71 69 69 71 71 71 71 67 69 76 76 77 77 78 78 78 78 78 78 77 77 78 79 80 78 79 78 77 76 77 76 75 76 76 70 74 64 66
22 19 19 16 17 22 23 24 23 26 26 27 27 28 30 29 29 40 39 37 39 37 54 50 55 57 58 58 57 59 60 62 61 61 61 59 59 59 61 63 63 63 64 66 68 69 71 71 71 72 71 71 72 72 72 72 72 73 72 72 70 68 70 71 69 70 72 69 72 76 76 77 78 77 77 77 77 76 78 78 79 79 79 78 78 78 78 78 78 76 75 74 74 72 76 69 74
24 20 19 16 17 19 21 22 22 22 25 24 28 26 28 30 32 31 33 34 38 38 51 52 55 55 56 57 58 58 58 61 60 61 59 59 59 61 62 64 65 65 67 67 67 69 70 72 72 72 72 71 72 72 73 72 73 74 75 74 72 70 70 71 73 73 73 71 70 74 77 77 77 76 76 75 76 76 78 79 79 80 79 78 78 78 77 78 78 77 76 74 75 71 65 66 70
25 24 18 15 15 17 18 19 20 24 24 24 25 25 25 27 26 27 30 30 34 35 35 54 55 55 56 59 58 59 58 62 62 61 60 59 60 61 63 65 64 64 65 67 67 68 68 71 72 73 73 71 72 72 73 73 74 74 74 75 73 74 75 72 71 71 72 72 70 72 75 76 77 76 76 76 75 77 79 79 79 78 78 79 78 78 77 77 76 76 76 74 74 72 69 64 70
23 24 22 15 14 16 18 17 18 21 23 24 24 26 27 30 26 26 28 29 36 39 40 63 57 58 59 57 58 58 57 60 62 62 60 60 62 63 64 65 64 64 66 68 68 69 70 71 73 73 74 72 72 73 73 73 74 73 73 73 72 71 73 72 71 70 70 70 66 67 73 74 75 75 76 75 74 76 78 78 78 78 78 78 79 78 77 78 76 76 75 75 74 75 72 69 66
23 21 20 17 14 15 16 15 16 19 19 20 24 24 26 29 29 30 30 29 30 31 40 38 50 58 55 57 58 58 58 59 61 61 62 61 62 62 63 65 65 65 66 68 69 70 71 72 73 73 73 73 73 73 73 74 74 74 73 72 72 71 72 73 74 71 71 72 71 72 74 75 76 75 74 75 75 76 78 79 79 78 78 79 78 78 78 76 75 75 75 74 74 75 74 75 72
20 18 15 14 14 15 14 13 13 17 18 20 21 21 25 27 27 28 29 31 33 33 37 41 40 55 52 55 56 57 57 58 61 61 63 62 62 64 64 65 65 64 66 67 68 70 72 73 73 73 74 74 73 74 73 74 74 74 73 72 72 72 71 73 74 74 74 74 72 71 74 75 76 75 74 75 75 76 78 78 79 78 78 78 79 78 77 76 77 77 76 75 77 75 74 76 71
17 17 15 13 12 14 15 12 11 12 12 16 16 21 26 26 28 30 29 29 29 29 30 36 44 44 55 53 52 55 55 57 59 60 62 63 66 64 63 65 65 66 67 68 69 71 72 73 74 74 74 74 74 75 73 74 74 74 74 73 73 73 73 73 74 74 74 75 73 73 75 75 76 76 75 75 75 76 77 78 78 79 78 78 79 77 76 75 76 76 76 76 76 75 75 74 76
17 17 14 12 11 10 11 11 12 14 17 17 19 12 21 25 27 25 28 29 29 29 29 28 39 42 47 52 55 56 57 60 58 61 62 65 65 64 63 64 66 66 67 70 70 70 71 73 74 74 74 74 74 75 74 74 75 75 74 73 73 74 74 74 74 75 75 76 75 74 75 75 75 75 75 76 76 76 77 77 77 77 77 75 77 76 76 77 77 76 76 76 76 74 75 73 75
16 14 12 10 7 8 10 9 15 15 14 16 11 12 15 15 23 24 25 26 31 30 33 31 37 40 52 44 52 57 56 55 58 60 62 64 64 64 64 65 67 66 68 69 69 70 70 72 73 74 74 74 74 75 75 74 74 74 74 74 74 74 74 74 74 75 75 75 74 74 74 77 75 75 74 75 76 75 76 77 75 76 76 77 78 77 76 75 75 76 75 76 76 74 74 74 73
13 12 12 11 12 12 15 11 14 12 10 15 9 9 14 19 24 23 26 28 25 26 27 31 29 42 47 54 47 52 55 55 56 60 61 63 63 64 63 66 69 68 68 69 69 70 71 72 73 74 74 75 74 75 75 74 74 74 74 74 74 74 74 74 74 74 74 74 74 74 75 76 76 76 76 75 74 72 76 77 76 76 77 77 77 77 76 75 74 75 77 77 76 76 74 74 73
12 13 16 11 12 16 11 16 9 6 7 9 4 8 11 15 23 21 18 22 26 30 29 30 29 37 45 47 54 52 52 55 56 59 61 63 63 63 63 67 69 69 69 70 69 69 71 72 73 74 74 75 75 74 75 74 74 74 74 74 74 75 75 75 74 74 75 74 74 74 76 75 76 76 76 75 74 74 76 77 77 76 77 76 77 77 77 78 77 76 77 76 76 76 75 74 73
13 15 15 13 10 11 17 16 18 13 7 4 4 7 9 14 16 20 15 17 22 26 30 28 44 45 47 46 46 53 53 53 55 57 57 59 61 62 66 67 68 68 69 69 69 70 71 72 74 73 74 75 75 75 75 75 75 75 75 75 75 75 75 75 74 73 75 75 75 74 74 74 75 75 75 75 74 74 75 77 77 77 78 77 77 78 78 78 78 77 77 76 75 76 76 74 74
14 14 11 12 15 12 16 16 15 14 16 10 6 7 14 8 15 12 14 16 20 23 24 31 35 44 47 43 46 52 55 56 57 58 59 61 63 65 64 66 68 69 68 68 69 71 72 73 74 74 74 75 75 75 75 75 75 75 75 75 75 75 75 75 74 74 74 76 76 75 75 75 75 75 75 76 76 76 75 76 77 77 77 78 77 78 77 78 78 78 78 76 75 76 76 75 73
14 13 11 10 11 18 14 15 12 12 10 10 13 10 14 14 22 17 14 9 14 18 24 28 36 36 43 46 48 45 54 56 56 57 59 61 63 63 62 67 69 69 69 68 69 71 72 73 74 75 75 74 75 75 75 75 75 75 75 75 75 75 75 75 75 75 75 75 77 76 76 76 76 76 76 76 75 76 76 76 77 77 77 77 77 77 77 77 78 78 78 77 76 76 75 75 74
14 11 9 8 10 10 18 19 12 12 13 14 15 13 10 10 8 9 13 11 13 16 16 18 28 41 48 47 49 46 46 56 55 56 58 61 62 65 66 67 67 68 67 68 70 72 73 74 74 75 75 75 75 75 75 75 76 75 75 75 75 75 75 74 73 74 71 74 76 77 77 76 76 76 76 76 76 76 77 76 76 76 77 77 77 78 77 78 78 78 77 77 76 74 76 75 74
12 9 8 9 10 10 17 13 21 15 9 13 8 10 13 11 14 14 12 13 13 14 15 14 26 34 47 46 48 48 44 56 57 58 59 59 60 65 65 66 67 68 68 69 72 72 73 74 74 75 75 75 75 75 75 76 76 75 75 75 75 75 74 73 73 73 73 73 74 76 75 76 75 74 74 73 75 75 75 77 76 76 77 77 76 76 78 78 78 78 78 78 76 76 76 76 75
12 10 10 7 11 13 18 18 14 15 16 18 15 11 11 14 20 14 13 12 15 21 23 18 18 24 45 46 48 52 50 51 51 54 57 59 61 63 67 66 67 69 70 70 71 71 72 73 74 75 75 75 75 74 75 75 75 74 74 75 75 75 74 73 73 74 73 72 71 73 73 74 75 75 74 75 76 75 75 75 77 77 77 77 77 77 78 78 78 78 77 77 77 77 76 75 76
13 12 10 9 12 14 17 16 21 23 20 18 17 16 15 16 16 14 13 17 23 18 20 17 16 27 39 44 49 49 49 52 55 54 56 57 58 63 65 66 66 68 69 68 69 69 69 72 74 75 75 76 76 75 76 76 75 75 75 75 75 75 75 74 74 74 73 72 72 71 72 71 74 75 75 74 76 74 75 74 75 75 75 76 77 76 77 77 77 77 76 76 76 77 76 75 74
12 11 11 11 11 12 13 12 13 16 21 20 19 13 19 20 15 15 20 22 26 22 25 34 22 26 37 50 48 50 50 51 54 53 55 59 62 64 66 66 66 68 69 68 68 68 68 71 73 74 75 75 74 74 74 75 75 75 75 75 74 75 74 74 74 74 73 73 72 72 72 72 74 74 75 74 74 75 76 76 74 74 74 76 77 76 76 77 77 76 77 76 76 77 76 75 75
12 9 11 11 10 11 12 13 9 9 14 20 16 18 28 14 12 18 20 26 20 23 26 28 24 21 34 39 49 52 51 51 52 53 57 59 62 64 65 67 67 67 68 68 68 68 68 70 72 73 73 74 74 74 75 75 76 74 74 74 74 74 74 73 73 73 72 72 73 73 73 74 74 75 75 74 74 73 75 76 75 76 76 76 77 77 76 77 77 76 76 76 75 77 76 76 75